Home   Weather   Haldimand   Past weeks

Flag for Canada Past Weather in Haldimand, Ontario, Canada — Yesterday and Last 2 Weeks

Now
70 °F

Broken clouds.


Feels Like: 70 °F
Forecast: 64 / 76 °F
Wind: 6 mph from West

Location: Hamilton Airport

Current Time: Aug 31, 2016 at 10:31:05 AM

Latest Report: Aug 31, 2016 at 10:00 AM


Visibility: 15 mi

Pressure: 29.96 "Hg

Humidity: 88%

Dew Point: 66 °F

Location of HaldimandLocation

Past Weather in Haldimand — Graph

°F

Haldimand Temperature Yesterday

Maximum temperature yesterday: 81 °F (at 2:00 PM)
Minimum temperature yesterday: 55 °F (at 7:00 AM)
Average temperature yesterday: 69 °F

High & Low Weather Summary for the Past Weeks

 TemperatureHumidityPressure
High86 °F (Aug 20, 2:00 PM)100% (Aug 17, 3:00 AM)30.28 "Hg (Aug 17, 3:00 AM)
Low54 °F (Aug 23, 6:00 AM)45% (Aug 19, 3:00 PM)29.59 "Hg (Aug 21, 3:00 AM)
Average71 °F78%30.04 "Hg
* Reported Aug 16 9:00 AM — Aug 31 9:00 AM, Haldimand, Weather by CustomWeather, © 2016

Note: Actual official high and low records may vary slightly from our data, if they occured in-between our weather recording intervals... More about our weather records

Advertising

Haldimand Weather History for the Previous 24 Hours

Scroll right to see more
 ConditionsComfort  
Time TempWeatherWind HumidityBarometerVisibility
9:00 AM
Wed, Aug 31
68 °FBroken clouds.5 mph88%29.96 "Hg15 mi
8:00 AM66 °FMostly cloudy.3 mph94%29.96 "Hg15 mi
7:00 AM66 °FMostly cloudy.3 mph94%29.97 "Hg15 mi
6:00 AM68 °FRain showers. Overcast.3 mph88%29.97 "Hg7 mi
5:00 AM68 °FMostly cloudy.5 mph94%29.96 "Hg15 mi
4:00 AM68 °FOvercast.5 mph94%29.98 "Hg15 mi
3:00 AM68 °FOvercast.5 mph94%29.99 "Hg15 mi
2:00 AM68 °FMostly cloudy.5 mph88%29.99 "Hg15 mi
1:00 AM70 °FMostly cloudy.5 mph88%30.00 "Hg15 mi
12:00 AM70 °FPassing clouds.7 mph88%30.01 "Hg15 mi
11:00 PM
Tue, Aug 30
70 °FPassing clouds.6 mph88%30.03 "Hg15 mi
10:00 PM70 °FPassing clouds.6 mph88%30.04 "Hg15 mi
9:00 PM70 °FPassing clouds.7 mph88%30.04 "Hg15 mi
8:00 PM73 °FPartly sunny.7 mph83%30.04 "Hg15 mi
7:00 PM79 °FPartly sunny.6 mph70%30.05 "Hg15 mi
6:00 PM79 °FBroken clouds.6 mph70%30.06 "Hg15 mi
5:00 PM81 °FBroken clouds.10 mph66%30.06 "Hg15 mi
4:00 PM81 °FPartly sunny.8 mph62%30.07 "Hg15 mi
3:00 PM81 °FPartly sunny.12 mph58%30.09 "Hg15 mi
2:00 PM81 °FScattered clouds.12 mph54%30.11 "Hg15 mi
1:00 PM79 °FPassing clouds.12 mph58%30.13 "Hg15 mi
12:00 PM79 °FPassing clouds.7 mph58%30.15 "Hg15 mi
11:00 AM75 °FPassing clouds.8 mph65%30.16 "Hg15 mi
10:00 AM72 °FPassing clouds.8 mph73%30.17 "Hg15 mi
Weather by CustomWeather, © 2016

See weather overviewHow to use our weather pages